CZ-4C DEB, 43265

Orbit data source: Space-Track

CZ-4C DEB, 43265 is space debris in SSO originally from a launch on Sat, 31 Mar 2018 UTC launched from the Taiyaun Space Center, China (TSC). Debris objects in space refer to the collection of defunct objects orbiting the Earth. Examples of debris include non-operational satellites, rocket bodies, and fragments generated from explosions, collisions, or faulty payload assembly.

Loading next visibility...
Identifier
43265, 2018-031G
Orbit
SSO
Country
Flag of CNCN / PRC
Related business
Manufacturer
Unknown
Mission
Spacecraft
Bus & Motor
Unknown
Mass
Unknown
Launch date (UTC)
2018-03-31 (8 years ago)
Launch vehicle
Unknown
Launch site
Taiyaun Space Center, China (TSC)
Object type
Payload
Rocket body
Debris
Shape & HBR
Unknown shape, 2.1 m
Radar Cross Section
Large (>1 m²)

Expand to show TLE details & history
Last TLE update: 4 hours ago

TLE from 4 hours ago
0 CZ-4C DEB
1 43265U 18031G   25304.64551404  .00013748  00000-0  11359-2 0  9990
2 43265  97.7994  23.0434 0001947 274.7708  85.3292 14.99072199410149
Epoch: 2025-10-31T15:29Z
TLE epoch observation values (Epoch: 2025-10-31T15:29:32.413Z)
Latitude
-0.00002°
Longitude
110.47138°
Altitude
572.702 km
Speed
7.575 km/s
True Right ascension
01h 32m 10s
True Declination
0° 00' 00"
Sunlit
Object was in full shadow at epoch
Visualization orbit readout
Latitude
Unknown
Longitude
Unknown
Altitude
Unknown
Speed
Unknown
Apparent Right ascension
Unknown
Apparent Declination
Unknown
Sunlit
N/A
Visualization observer readout
Local Sidereal Time
15:06:49
Azimuth
Unknown
Elevation
Unknown
Doppler factor
Unknown
Orbital elements
Apogee altitude
568.125 km
Perigee altitude
565.42 km
Semi-major axis
6,944.91 km
Eccentricity
0.00019
Inclination
97.7994°
RAAN
23.0434°
Arg. of periapsis
274.7708°
True anomaly
85.35144°
Mean anomaly
85.3292°
Eccentric anomaly
85.34032°
Mean motion
3.7501 °/min
Orbital period
96 mins
BSTAR
0.0011359
Loading maneuver chart data...
Computing Atmospheric mass density...
Loading historical data...
Loading historical data...
Loading historical data...
Loading historical data...
Loading historical data...
Loading historical data...
Loading historical data...

Documentation

Showing up to 5 results
|